Regional Weather Roundup
Issued by NWS

Home | Current Version | Previous Version | Text Only | Print | Product List | Glossary Off
Versions: 1 2 3 4 5 6 7 8 9 10 11 12 13 14 15 16 17 18 19 20 21 22 23 24 25 26 27

000
ASUS45 KCYS 231810
RWRWY

WYOMING REGIONAL WEATHER ROUNDUP
NATIONAL WEATHER SERVICE CHEYENNE WY
1200 PM MDT SUN APR 23 2017

NOTE:  "FAIR" INDICATES FEW OR NO CLOUDS BELOW 12,000 FEET
WITH NO SIGNIFICANT WEATHER AND/OR OBSTRUCTIONS TO VISIBILITY.

WYZ001-231900-
YELLOWSTONE NATIONAL PARK

CITY           SKY/WX    TMP DP  RH WIND       PRES   REMARKS
LK YELLOWSTONE   N/A     45  25  45 SW3       29.90F
6HR MIN TEMP:  26; 6HR MAX TEMP:  45; 6HR PCP:  0.01;

W YELLOWSTONE  NOT AVBL

$$
WYZ002>013-054>058-071-098>099-231900-
NORTHERN WYOMING

CITY           SKY/WX    TMP DP  RH WIND       PRES   REMARKS
JACKSON        PTSUNNY   48  27  43 SW9       29.88F
CODY           FAIR      60  31  33 VRB5      29.77F
GREYBULL       FAIR      64  34  32 S12       29.74F
6HR MIN TEMP:  36; 6HR MAX TEMP:  64;

WORLAND        FAIR      64  36  35 S10       29.74F
6HR MIN TEMP:  41; 6HR MAX TEMP:  64;

SHERIDAN       FAIR      66  34  30 E16       29.72F
6HR MIN TEMP:  33; 6HR MAX TEMP:  66;

BUFFALO        FAIR      63  30  28 S16       29.77F
6HR MIN TEMP:  43; 6HR MAX TEMP:  64;

GILLETTE       FAIR      63  33  32 S7        29.77F
6HR MIN TEMP:  37; 6HR MAX TEMP:  64;

HULETT         FAIR      61  34  36 NW7       29.80F
NEWCASTLE      FAIR      59  30  33 SE9       29.82S

$$
WYZ014>020-022>026-101>103-231900-
CENTRAL WYOMING

CITY           SKY/WX    TMP DP  RH WIND       PRES   REMARKS
BIG PINEY      FAIR      53  25  33 VRB3      29.91F
6HR MIN TEMP:  22; 6HR MAX TEMP:  53;

PINEDALE       CLOUDY    52  23  32 CALM      29.92F
DUBOIS         MOCLDY    52  21  30 W22G30    29.86S
LANDER         FAIR      58  26  29 NW5       29.79F
6HR MIN TEMP:  40; 6HR MAX TEMP:  59;

RIVERTON       FAIR      61  29  29 W3        29.80F
6HR MIN TEMP:  39; 6HR MAX TEMP:  61;

CASPER         FAIR      65  28  24 SW18G29   29.82F
6HR MIN TEMP:  41; 6HR MAX TEMP:  65;

DOUGLAS        FAIR      65  32  29 VRB7      29.82F
6HR MIN TEMP:  36; 6HR MAX TEMP:  65;


$$
WYZ021-027>030-104>119-231900-
SOUTHERN WYOMING

CITY           SKY/WX    TMP DP  RH WIND       PRES   REMARKS
EVANSTON       FAIR      62  26  25 SW22G31   29.89F
6HR MIN TEMP:  38; 6HR MAX TEMP:  62;

KEMMERER         N/A     55  27  33 SW18G28   29.91F
FORT BRIDGER   FAIR      59  30  33 NE7       29.92F
ROCK SPRINGS   FAIR      61  22  22 S6        29.89F
6HR MIN TEMP:  31; 6HR MAX TEMP:  61;

DIXON            N/A     61  23  23 SW15G25   29.97F
RAWLINS        FAIR      60  17  18 SW33G41   29.90F
6HR MIN TEMP:  38; 6HR MAX TEMP:  60;

SARATOGA       FAIR      64  19  17 S20G28    29.94F
LARAMIE        FAIR      62  22  21 SW20G25   29.92F
6HR MIN TEMP:  37; 6HR MAX TEMP:  63;

CHEYENNE       FAIR      60  25  26 S10       29.92F
6HR MIN TEMP:  34; 6HR MAX TEMP:  60;

TORRINGTON     FAIR      69  20  15 SW6       29.82F
6HR MIN TEMP:  39; 6HR MAX TEMP:  70;

PINE BLUFFS    FAIR      59  36  41 S13G20    29.90F

$$




USA.gov is the U.S. government's official web portal to all federal, state and local government web resources and services.